Regional Weather Roundup
Issued by NWS

Home | Current Version | Previous Version | Text Only | Print | Product List | Glossary On
Versions: 1 2 3 4 5 6 7 8 9 10 11 12 13 14 15 16 17 18 19 20 21 22 23 24 25 26 27 28
000
ASUS46 KSEW 260410
RWRWA

WASHINGTON REGIONAL WEATHER ROUNDUP
NATIONAL WEATHER SERVICE SEATTLE WA
900 PM PDT TUE APR 25 2017

NOTE:"FAIR" INDICATES FEW OR NO CLOUDS BELOW 12,000 FEET WITH NO
SIGNIFICANT WEATHER AND/OR OBSTRUCTIONS TO VISIBILITY.

WAZ507-509-555>559-260500-
SEATTLE, TACOMA, EVERETT, AND VICINITY

CITY           SKY/WX    TMP DP  RH WIND       PRES   REMARKS
EVERETT        CLOUDY    49  45  86 S8        29.78F
BOEING FIELD   LGT RAIN  51  47  86 CALM      29.78F
RENTON         CLOUDY    52  47  83 CALM      29.78F
SEATAC AIRPORT CLOUDY    50  46  86 CALM      29.78F
JBLM-MCCHORD   CLOUDY    50  50 100 CALM      29.77F
PUYALLUP       DRIZZLE   50  50 100 CALM      29.78F
BREMERTON      NOT AVBL
JBLM-FT LEWIS  DRIZZLE   49  47  92 S1        29.81F
TACOMA NARROWS LGT RAIN  48  47  96 CALM      29.78S
$$

WAZ001-503-506-510-514-515-260500-
NORTH INTERIOR

CITY           SKY/WX    TMP DP  RH WIND       PRES   REMARKS
BELLINGHAM     LGT RAIN  53  42  66 E6        29.75F
FRIDAY HARBOR  CLOUDY    51  45  79 E13       29.75F
EASTSOUND      LGT RAIN  52  43  71 CALM      29.73F
PORT ANGELES   CLOUDY    48  45  89 W6        29.71F
EDIZ HOOK      CLOUDY    49  45  84 W5        29.70S
PORT TOWNSEND  MOCLDY    50  45  81 SE10G20   29.75F
NAS WHIDBEY    CLOUDY    53  43  68 SE14      29.79F
ARLINGTON      CLOUDY    50  39  66 S3        29.79F
BURLINGTON     CLOUDY    52  45  76 SE5       29.77S
$$

WAZ020-022-039-040-504-511-512-260500-
SOUTHWEST INTERIOR

CITY           SKY/WX    TMP DP  RH WIND       PRES   REMARKS
SHELTON        LGT RAIN  49  47  93 VRB5      29.75F FOG
OLYMPIA        RAIN      49  48  97 CALM      29.78S FOG
CHEHALIS       CLOUDY    50  48  93 S10       29.78S
KELSO          LGT RAIN  50  49  96 SE9       29.82R
VANCOUVER      CLOUDY    52  52 100 SE5       29.83S
SCAPPOOSE, OR  CLOUDY    51  51 100 CALM      29.82R
PORTLAND, OR   LGT RAIN  52  51  97 S8        29.84R FOG
$$

WAZ021-516-517-260500-
WASHINGTON COAST

CITY           SKY/WX    TMP DP  RH WIND       PRES   REMARKS
FORKS          LGT RAIN  49  47  93 SE3       29.70S
HOQUIAM        LGT RAIN  50  50 100 SW18      29.75S FOG
ASTORIA, OR    LGT RAIN  50  48  93 SW15G24   29.81R FOG
$$

WAZ019-023-024-040-567>569-260500-
CASCADE MOUNTAINS AND COLUMBIA GORGE

CITY           SKY/WX    TMP DP  RH WIND       PRES   REMARKS
STAMPEDE PASS  CLOUDY    36  35  96 CALM      29.76S
TROUTDALE, OR  CLOUDY    51  50  96 E5        29.84S
THE DALLES, OR CLOUDY    51  48  89 NW7       29.83S
$$

WAZ026-027-041>044-520-521-260500-
EAST SLOPES

CITY           SKY/WX    TMP DP  RH WIND       PRES   REMARKS
OMAK           CLOUDY    57  36  45 SE14      29.71S
WENATCHEE      CLOUDY    56  35  45 W13       29.72S
ELLENSBURG     LGT RAIN  51  36  56 S5        29.77S
YAKIMA         CLOUDY    53  39  59 S22G30    29.79R
SUNNYSIDE ARPT LGT RAIN  47  45  90 E5        29.83S
$$

WAZ028-034-035-260500-
COLUMBIA BASIN

CITY           SKY/WX    TMP DP  RH WIND       PRES   REMARKS
EPHRATA        MOCLDY    53  32  44 SW14      29.75R
MOSES LAKE     MOCLDY    55  35  47 SW13      29.77R
PASCO          LGT RAIN  55  40  56 SW14G24   29.84R
HERMISTON, OR  LGT RAIN  52  48  86 SW7       29.84R
$$

WAZ036>038-260500-
NORTHEAST WASHINGTON

CITY           SKY/WX    TMP DP  RH WIND       PRES   REMARKS
SPOKANE GEIGER CLOUDY    48  34  58 S5        29.80S
SPOKANE FELTS  MOCLDY    45  40  82 NE5       29.81S
FAIRCHILD AFB  CLOUDY    47  36  64 SW8       29.79S
COEURDALENE,ID MOCLDY    43  40  89 NE6       29.83R
DEER PARK      MOCLDY    42  39  89 CALM      29.81S
$$

WAZ029>033-260500-
SOUTHEAST WASHINGTON

CITY           SKY/WX    TMP DP  RH WIND       PRES   REMARKS
PULLMAN        CLOUDY    47  40  76 S3        29.84S
LEWISTON, ID   CLOUDY    52  43  71 CALM      29.82F
WALLA WALLA    LGT RAIN  53  44  71 S9        29.85R
PENDLETON, OR  LGT RAIN  49  47  93 S5        29.85R
$$




USA.gov is the U.S. government's official web portal to all federal, state and local government web resources and services.